Location: Caltech
(34.1382°N, 118.1253°W)
Time: 23:30:30
(UTC-07:00)

AO-7 - Visible Passes

Search period start: 25 June 2016 00:00
Search period end: 05 July 2016 00:00
Orbit: 1440 x 1458 km, 101.6° (Epoch: 25 June)

Date Brightness Start Highest point End Pass type
(mag) Time Alt. Az. Time Alt. Az. Time Alt. Az.
25 Jun ? 03:50:34 10° NE 03:58:07 36° E 04:05:37 10° SSE visible
26 Jun ? 02:54:35 10° ENE 02:57:30 12° E 03:00:25 10° ESE visible
26 Jun ? 04:42:50 10° NNE 04:51:15 80° ESE 04:59:37 10° SSW visible
27 Jun ? 03:43:48 10° NE 03:51:07 33° E 03:58:21 10° SSE visible
28 Jun ? 02:49:56 10° E 02:50:26 10° E 02:50:56 10° E visible
28 Jun ? 04:35:54 10° NNE 04:44:18 73° ESE 04:52:37 10° S visible
29 Jun ? 03:37:04 10° NE 03:44:06 29° E 03:51:03 10° SSE visible
30 Jun ? 04:28:59 10° NNE 04:37:20 66° ESE 04:45:37 10° S visible
01 Jul ? 03:30:23 10° NE 03:37:04 26° E 03:43:42 10° SSE visible
02 Jul ? 04:22:06 10° NNE 04:30:22 60° ESE 04:38:33 10° S visible
03 Jul ? 03:23:45 10° NE 03:30:02 23° E 03:36:17 10° SE visible
03 Jul ? 05:14:58 10° N 05:23:15 66° WNW 05:31:28 10° SSW visible
04 Jul ? 04:15:13 10° NNE 04:23:23 54° ESE 04:31:28 10° S visible
